sat.trackr.live / text

‹ back to catalog

YAOGAN-43 02A

NORAD 60945 · 2024-156A

PAYLOAD ACTIVE UNKNOWN

§ Identity

Operator
Country
PRC
Launch date
2024-09-03
Launch site
XICLF
Launch vehicle
Mass (kg)
RCS (m²)

External: N2YO · Heavens-Above · Gunter

§ Orbital elements

Epoch: 2026-09-22T22:53:58.820928Z

Period
92.35 min
Inclination
34.9932°
Eccentricity
0.0003716
Mean motion
15.59343634 rev/d
Perigee alt
387.0 km
Apogee alt
392.1 km
Semi-major
6,767.7 km
B*
6.9445e-4
RAAN
228.0074°
Arg perigee
234.7956°
Mean anomaly
125.2422°
Rev number
11,518

§ Raw data

YAOGAN-43 02A1 60945U 24156A   26265.95415302  .00056978  00000+0  69445-3 0  99972 60945  34.9932 228.0074 0003716 234.7956 125.2422 15.59343634115189

JSON: /api/v1/satellites/60945 · /tle

For live sub-satellite position, see the globe view (requires WebGL).

§ Visibility from observer

Set your observer location to see the next 7 days of passes ≥ 10°. The values pass through the URL so the page stays shareable.

No JS? Fill the form by hand. The geolocation button needs JavaScript.